Date String (YYYY-MM-DD hh:mm:ss) UTC,Instrument flags,absolute air pressure of the measurement (hPa),sample flow rate (lpm),inlet stack bypass flow (lpm),air temperature of the measurement (°C),ambient temperature measured by the external sensor (°C),aerosol sample conditioner tube jacket temperature (°C),OPC LED temperature (°C),internal box temperature (°C),relative humidity of the measurement (%),span deviation,mass concentration of particles derived from Lorenz-Mie calculation of OPC scattering (μg/m³),mass concentration of particles derived from Lorenz-Mie calculation of OPC scattering (μg/m³),mass concentration of particles derived from Lorenz-Mie calculation of OPC scattering (μg/m³)
DateTimeUTC,F1_M11,P_M11,Q1_M11,Q2_M11,T1_M11,T2_M11,T3_M11,T4_M11,T5_M11,U1_M11,ZSPAN_M11,X2_M11,X0_M11,X1_M11
2024-02-11 19:00:00,SystemResetWarning,0828.8,5.00,000.00,019.3,018.9,000.0,027.7,021.1,13.8,0000.0,0004.31,0006.12,0004.21
2024-02-11 19:01:00,SystemResetWarning,0828.8,5.00,000.00,019.3,018.9,000.0,027.7,021.1,14.3,0000.0,0004.30,0006.87,0004.20
2024-02-11 19:02:00,SystemResetWarning,0828.8,5.00,000.00,019.3,018.9,000.0,027.7,021.1,13.2,0000.0,0004.31,0007.56,0004.20
2024-02-11 19:03:00,SystemResetWarning,0828.8,5.00,000.00,019.3,018.9,000.0,027.7,021.1,13.4,0000.0,0004.31,0007.50,0004.20
2024-02-11 19:04:00,SystemResetWarning,0828.8,5.00,000.00,019.3,018.9,000.0,027.7,021.1,13.0,0000.0,0004.34,0007.34,0004.21
2024-02-11 19:05:00,SystemResetWarning,0828.8,4.99,000.00,019.3,018.9,000.0,027.7,021.1,12.8,0000.0,0004.38,0007.65,0004.24
2024-02-11 19:06:00,SystemResetWarning,0828.7,4.99,000.00,019.3,018.9,000.0,027.7,021.1,12.9,0000.0,0004.41,0007.69,0004.27
2024-02-11 19:07:00,SystemResetWarning,0828.7,4.99,000.00,019.3,018.9,000.0,027.7,021.1,12.8,0000.0,0004.43,0007.71,0004.29
2024-02-11 19:08:00,SystemResetWarning,0828.7,5.01,000.00,019.3,018.8,000.0,027.7,021.1,12.1,0000.0,0004.48,0007.81,0004.33
2024-02-11 19:09:00,SystemResetWarning,0828.7,5.00,000.00,019.3,018.9,000.0,027.7,021.1,12.1,0000.0,0004.52,0007.85,0004.37
2024-02-11 19:10:00,SystemResetWarning,0828.6,5.01,000.00,019.3,018.9,000.0,027.7,021.1,12.7,0000.0,0004.53,0007.90,0004.38
2024-02-11 19:11:00,SystemResetWarning,0828.6,4.99,000.00,019.3,018.8,000.0,027.7,021.0,12.6,0000.0,0004.52,0008.52,0004.38
2024-02-11 19:12:00,SystemResetWarning,0828.6,4.99,000.00,019.3,018.8,000.0,027.7,021.0,12.6,0000.0,0004.56,0008.19,0004.40
2024-02-11 19:13:00,SystemResetWarning,0828.6,5.00,000.00,019.3,018.8,000.0,027.7,021.0,12.3,0000.0,0004.59,0007.79,0004.42
2024-02-11 19:14:00,SystemResetWarning,0828.7,5.01,000.00,019.3,018.8,000.0,027.7,021.0,12.5,0000.0,0004.61,0007.82,0004.42
2024-02-11 19:15:00,SystemResetWarning,0828.6,5.01,000.00,019.3,018.8,000.0,027.7,021.0,13.2,0000.0,0004.60,0007.76,0004.42
2024-02-11 19:16:00,SystemResetWarning,0828.6,5.00,000.00,019.3,018.8,000.0,027.7,021.0,12.2,0000.0,0004.58,0007.45,0004.42
2024-02-11 19:17:00,SystemResetWarning,0828.6,5.00,000.00,019.3,018.8,000.0,027.7,021.0,12.3,0000.0,0004.58,0007.46,0004.41
2024-02-11 19:18:00,SystemResetWarning,0828.6,4.99,000.00,019.3,018.8,000.0,027.7,021.0,12.2,0000.0,0004.58,0007.46,0004.40
2024-02-11 19:19:00,SystemResetWarning,0828.6,5.00,000.00,019.3,018.8,000.0,027.7,021.0,12.4,0000.0,0004.57,0007.42,0004.40
2024-02-11 19:20:00,SystemResetWarning,0828.6,4.99,000.00,019.3,018.8,000.0,027.7,021.0,12.6,0000.0,0004.58,0007.42,0004.41
2024-02-11 19:21:00,SystemResetWarning,0828.6,5.00,000.00,019.3,018.8,000.0,027.7,021.0,12.5,0000.0,0004.63,0007.66,0004.45
2024-02-11 19:22:00,SystemResetWarning,0828.6,5.00,000.00,019.3,018.8,000.0,027.7,021.0,13.0,0000.0,0004.67,0006.90,0004.49
2024-02-11 19:23:00,SystemResetWarning,0828.6,5.01,000.00,019.3,018.8,000.0,027.7,021.0,12.9,0000.0,0004.68,0006.79,0004.50
2024-02-11 19:24:00,SystemResetWarning,0828.6,5.01,000.00,019.2,018.8,000.0,027.7,021.0,12.3,0000.0,0004.68,0006.70,0004.53
2024-02-11 19:25:00,SystemResetWarning,0828.6,5.00,000.00,019.3,018.8,000.0,027.7,021.0,12.5,0000.0,0004.72,0006.78,0004.58
2024-02-11 19:26:00,SystemResetWarning,0828.6,4.99,000.00,019.2,018.7,000.0,027.7,021.0,12.7,0000.0,0004.78,0006.91,0004.63
2024-02-11 19:27:00,SystemResetWarning,0828.6,5.00,000.00,019.2,018.8,000.0,027.7,021.0,12.9,0000.0,0004.83,0007.01,0004.68
2024-02-11 19:28:00,SystemResetWarning,0828.6,5.01,000.00,019.2,018.8,000.0,027.7,021.0,12.9,0000.0,0004.87,0007.16,0004.72
2024-02-11 19:29:00,SystemResetWarning,0828.6,5.00,000.00,019.2,018.8,000.0,027.7,021.0,13.3,0000.0,0004.91,0007.24,0004.76
2024-02-11 19:30:00,SystemResetWarning,0828.6,4.99,000.00,019.2,018.8,000.0,027.7,021.0,12.7,0000.0,0004.94,0007.29,0004.78
2024-02-11 19:31:00,SystemResetWarning,0828.6,5.00,000.00,019.2,018.8,000.0,027.7,021.0,12.6,0000.0,0004.97,0007.34,0004.80
2024-02-11 19:32:00,SystemResetWarning,0828.6,5.01,000.00,019.2,018.7,000.0,027.7,020.9,13.0,0000.0,0005.01,0007.31,0004.83
2024-02-11 19:33:00,SystemResetWarning,0828.6,5.00,000.00,019.2,018.7,000.0,027.6,020.9,13.1,0000.0,0005.06,0007.45,0004.88
2024-02-11 19:34:00,SystemResetWarning,0828.6,5.01,000.00,019.2,018.7,000.0,027.6,020.9,13.5,0000.0,0005.13,0007.57,0004.96
2024-02-11 19:35:00,SystemResetWarning,0828.6,5.00,000.00,019.2,018.7,000.0,027.6,020.9,12.7,0000.0,0005.19,0007.66,0005.01
2024-02-11 19:36:00,SystemResetWarning,0828.6,5.00,000.00,019.2,018.7,000.0,027.6,020.9,13.1,0000.0,0005.23,0007.76,0005.05
2024-02-11 19:37:00,SystemResetWarning,0828.6,5.00,000.00,019.2,018.7,000.0,027.6,020.9,12.6,0000.0,0005.27,0007.76,0005.09
2024-02-11 19:38:00,SystemResetWarning,0828.6,5.00,000.00,019.2,018.7,000.0,027.6,020.9,12.6,0000.0,0005.32,0007.89,0005.13
2024-02-11 19:39:00,SystemResetWarning,0828.6,4.99,000.00,019.2,018.7,000.0,027.6,020.9,12.9,0000.0,0005.35,0007.89,0005.16
2024-02-11 19:40:00,SystemResetWarning,0828.6,5.00,000.00,019.2,018.7,000.0,027.6,020.9,12.7,0000.0,0005.37,0007.94,0005.18
2024-02-11 19:41:00,SystemResetWarning,0828.6,5.00,000.00,019.2,018.7,000.0,027.6,020.9,12.6,0000.0,0005.42,0008.03,0005.22
2024-02-11 19:42:00,SystemResetWarning,0828.6,5.00,000.00,019.2,018.7,000.0,027.6,020.9,12.7,0000.0,0005.47,0008.15,0005.25
2024-02-11 19:43:00,SystemResetWarning,0828.5,5.01,000.00,019.2,018.7,000.0,027.6,020.9,12.9,0000.0,0005.48,0008.33,0005.27
2024-02-11 19:44:00,SystemResetWarning,0828.6,5.00,000.00,019.2,018.7,000.0,027.6,020.8,13.6,0000.0,0005.49,0008.45,0005.27
2024-02-11 19:45:00,SystemResetWarning,0828.5,5.00,000.00,019.2,018.7,000.0,027.6,020.8,13.3,0001.0,0005.47,0008.65,0005.25
2024-02-11 19:46:00,SystemResetWarning,0828.5,5.00,000.00,019.2,018.7,000.0,027.6,020.9,13.0,0000.3,0005.45,0008.65,0005.23
2024-02-11 19:47:00,SystemResetWarning,0828.5,5.00,000.00,019.2,018.7,000.0,027.6,020.9,13.0,0000.0,0005.43,0008.63,0005.21
2024-02-11 19:48:00,SystemResetWarning,0828.4,5.00,000.00,019.2,018.7,000.0,027.6,020.9,13.2,0001.5,0005.44,0008.73,0005.20
2024-02-11 19:49:00,SystemResetWarning,0828.4,5.00,000.00,019.2,018.7,000.0,027.6,020.9,13.2,0002.1,0005.43,0009.15,0005.20
2024-02-11 19:50:00,SystemResetWarning,0828.4,5.00,000.00,019.2,018.7,000.0,027.6,020.9,13.2,0002.2,0005.43,0009.21,0005.19
2024-02-11 19:51:00,SystemResetWarning,0828.4,5.01,000.00,019.2,018.7,000.0,027.6,020.9,13.7,0003.1,0005.44,0009.49,0005.19
2024-02-11 19:52:00,SystemResetWarning,0828.4,5.01,000.00,019.2,018.7,000.0,027.6,020.9,13.2,0001.3,0005.42,0010.22,0005.18
2024-02-11 19:53:00,SystemResetWarning,0828.4,5.01,000.00,019.2,018.7,000.0,027.6,020.9,13.0,0000.0,0005.39,0010.19,0005.15
2024-02-11 19:54:00,SystemResetWarning,0828.4,4.99,000.00,019.2,018.7,000.0,027.6,020.9,13.0,0000.0,0005.36,0010.63,0005.14
2024-02-11 19:55:00,SystemResetWarning,0828.4,4.99,000.00,019.2,018.7,000.0,027.6,020.9,12.8,0000.0,0005.35,0010.80,0005.12
2024-02-11 19:56:00,SystemResetWarning,0828.4,4.99,000.00,019.2,018.7,000.0,027.6,020.9,13.2,0000.0,0005.36,0010.89,0005.12
2024-02-11 19:57:00,SystemResetWarning,0828.4,5.01,000.00,019.2,018.7,000.0,027.6,020.9,13.1,0000.0,0005.37,0010.88,0005.13
2024-02-11 19:58:00,SystemResetWarning,0828.4,5.01,000.00,019.2,018.7,000.0,027.6,020.9,13.5,0000.0,0005.39,0010.92,0005.14
2024-02-11 19:59:00,SystemResetWarning,0828.4,5.00,000.00,019.2,018.8,000.0,027.6,020.9,13.5,0000.0,0005.40,0011.24,0005.14
